EW1806 Weather Reports


time (UTC)temp
F
wind
direction
speed
knots
gust
knots
rain 1hr
in
rain 24hr
in
rain mn
in
humidity
%
barometer
mb
20260508065041 69 40 3.5 12.2 0.00 0.00 0.00 44 1017.8
20260508064549 68 18 7.0 12.2 0.00 0.00 0.00 46 1017.7
20260508064039 67 10 3.5 7.8 0.00 0.00 0.00 48 1017.5
20260508063556 67 15 3.5 6.1 0.00 0.00 0.00 49 1017.6
20260508063044 67 38 2.6 4.3 0.00 0.00 0.00 52 1017.7
20260508062536 66 67 2.6 7.8 0.00 0.00 0.00 53 1018.2
20260508062040 66 75 2.6 8.7 0.00 0.00 0.00 52 1018.6
20260508061542 66 71 6.1 8.7 0.00 0.00 0.00 52 1018.7
20260508061027 66 71 1.7 4.3 0.00 0.00 0.00 54 1019.0
20260508060546 65 47 1.7 3.5 0.00 0.00 0.00 55 1019.0
20260508060054 65 308 1.7 5.2 0.00 0.00 0.00 54 1018.9
20260508055546 65 275 3.5 7.0 0.00 0.00 0.00 53 1018.9
20260508055045 66 329 4.3 9.6 0.00 0.00 0.00 50 1018.6
20260508054536 67 302 4.3 9.6 0.00 0.00 0.00 47 1018.7
20260508054042 68 245 2.6 6.1 0.00 0.00 0.00 42 1018.5
20260508053532 68 11 1.7 7.0 0.00 0.00 0.00 42 1018.1
20260508053042 68 71 3.5 7.8 0.00 0.00 0.00 42 1017.7
20260508052530 68 5 3.5 8.7 0.00 0.00 0.00 41 1017.6
20260508052041 68 53 4.3 8.7 0.00 0.00 0.00 42 1017.3
20260508051530 68 33 4.3 7.0 0.00 0.00 0.00 41 1017.2
20260508051041 68 27 3.5 7.0 0.00 0.00 0.00 42 1017.5
20260508050530 68 343 3.5 7.8 0.00 0.00 0.00 40 1017.5
20260508050037 68 9 2.6 8.7 0.00 0.00 0.00 39 1017.2
20260508045538 67 11 6.1 8.7 0.00 0.00 0.00 41 1017.1
20260508045025 67 13 2.6 8.7 0.00 0.00 0.00 41 1017.1
20260508044549 67 28 5.2 8.7 0.00 0.00 0.00 42 1016.9
20260508044026 66 11 3.5 7.0 0.00 0.00 0.00 42 1016.9
20260508043538 66 39 4.3 7.0 0.00 0.00 0.00 42 1017.0
20260508043030 66 58 2.6 6.1 0.00 0.00 0.00 43 1017.0
20260508042535 66 60 1.7 3.5 0.00 0.00 0.00 43 1016.8
20260508042105 65 69 0.9 2.6 0.00 0.00 0.00 46 1016.7
20260508041544 65 69 0.9 2.6 0.00 0.00 0.00 49 1016.6
20260508041052 64 69 1.7 4.3 0.00 0.00 0.00 53 1016.5
20260508040544 63 44 2.6 6.1 0.00 0.00 0.00 59 1016.3
20260508040043 63 89 3.5 6.1 0.00 0.00 0.00 60 1016.5
20260508035535 64 86 2.6 7.0 0.00 0.00 0.00 56 1016.5
20260508035038 65 84 2.6 7.0 0.00 0.00 0.00 49 1016.4
20260508034557 65 98 1.7 4.3 0.00 0.00 0.00 44 1016.4
20260508034031 66 298 1.7 3.5 0.00 0.00 0.00 43 1016.4
20260508033541 66 295 1.7 3.5 0.00 0.00 0.00 42 1016.3
20260508033104 66 314 0.9 4.3 0.00 0.00 0.00 39 1015.5
20260508032535 66 302 2.6 8.7 0.00 0.00 0.00 39 1015.0
20260508032045 66 298 2.6 8.7 0.00 0.00 0.00 38 1014.7
20260508031537 66 342 3.5 5.2 0.00 0.00 0.00 38 1014.5
20260508031026 66 355 0.9 3.5 0.00 0.00 0.00 38 1014.3
20260508030548 66 342 2.6 6.1 0.00 0.00 0.00 38 1014.3
20260508030039 66 322 3.5 6.1 0.00 0.00 0.00 38 1014.5
20260508025532 66 70 1.7 7.8 0.00 0.00 0.00 38 1014.6
20260508025038 66 335 2.6 7.8 0.00 0.00 0.00 39 1014.5
20260508024531 66 350 3.5 5.2 0.00 0.00 0.00 39 1014.5
20260508024045 65 15 3.5 5.2 0.00 0.00 0.00 40 1014.5
20260508023532 65 32 2.6 4.3 0.00 0.00 0.00 42 1014.6
20260508023041 64 342 1.7 3.5 0.00 0.00 0.00 44 1014.8
20260508022528 65 94 0.0 2.6 0.00 0.00 0.00 48 1014.8
20260508022032 66 54 1.7 6.1 0.00 0.00 0.00 40 1014.7
20260508021547 66 32 2.6 6.1 0.00 0.00 0.00 40 1014.7
20260508021059 65 15 2.6 5.2 0.00 0.00 0.00 41 1014.8
20260508020559 65 59 2.6 5.2 0.00 0.00 0.00 44 1014.9
20260508020031 64 52 2.6 7.8 0.00 0.00 0.00 47 1014.8
20260508015549 63 56 4.3 7.8 0.00 0.00 0.00 48 1014.9
20260508015053 63 150 0.9 2.6 0.00 0.00 0.00 55 1014.9
20260508014541 63 120 1.7 3.5 0.00 0.00 0.00 54 1014.9
20260508014051 63 105 1.7 4.3 0.00 0.00 0.00 53 1014.8
20260508013545 64 69 2.6 4.3 0.00 0.00 0.00 49 1014.8
20260508013034 65 106 2.6 7.0 0.00 0.00 0.00 41 1015.0
20260508012546 66 51 3.5 7.0 0.00 0.00 0.00 39 1015.1
20260508012043 65 36 0.9 6.1 0.00 0.00 0.00 40 1015.2
20260508011535 65 308 2.6 5.2 0.00 0.00 0.00 40 1015.2
20260508011028 65 13 1.7 4.3 0.00 0.00 0.00 41 1015.2
20260508010538 65 355 0.9 4.3 0.00 0.00 0.00 41 1015.2
20260508010034 65 355 1.7 4.3 0.00 0.00 0.00 41 1015.2
20260508005531 65 347 2.6 3.5 0.00 0.00 0.00 42 1015.3
20260508005047 65 24 0.9 6.1 0.00 0.00 0.00 42 1015.3
20260508004536 65 346 1.7 8.7 0.00 0.00 0.00 42 1015.3
20260508004028 65 347 2.6 7.0 0.00 0.00 0.00 42 1015.3
20260508003544 65 300 4.3 7.0 0.00 0.00 0.00 42 1015.3
20260508003034 65 61 2.6 6.1 0.00 0.00 0.00 43 1015.5
20260508002551 64 53 0.0 4.3 0.00 0.00 0.00 45 1015.5
20260508002046 65 53 1.7 5.2 0.00 0.00 0.00 45 1015.5
20260508001546 65 25 3.5 7.0 0.00 0.00 0.00 43 1015.4
20260508001038 65 28 4.3 7.0 0.00 0.00 0.00 42 1015.5
20260508000559 65 44 3.5 6.1 0.00 0.00 0.00 43 1015.6
20260508000032 65 53 2.6 7.0 0.00 0.00 0.00 43 1015.7
20260507235549 65 51 2.6 7.0 0.00 0.00 0.00 43 1015.8
20260507235039 65 51 0.9 6.1 0.00 0.00 0.00 43 1015.8
20260507234535 65 51 2.6 7.0 0.00 0.00 0.00 44 1015.8
20260507234038 65 360 4.3 7.8 0.00 0.00 0.00 45 1015.8
20260507233530 65 346 5.2 7.8 0.00 0.00 0.00 45 1015.9
20260507233034 65 36 5.2 8.7 0.00 0.00 0.00 45 1016.1
20260507232547 65 44 5.2 9.6 0.00 0.00 0.00 45 1016.2
20260507232032 65 29 4.3 9.6 0.00 0.00 0.00 45 1016.3
20260507231539 65 15 5.2 9.6 0.00 0.00 0.00 45 1016.4
20260507231033 65 5 6.1 9.6 0.00 0.00 0.00 46 1016.4
20260507230554 65 24 2.6 6.1 0.00 0.00 0.00 46 1016.6
20260507230104 64 46 2.6 7.0 0.00 0.00 0.00 48 1016.6
20260507225536 64 107 3.5 7.0 0.00 0.00 0.00 49 1016.8
20260507225043 64 102 2.6 7.0 0.00 0.00 0.00 49 1016.9
20260507224532 65 77 3.5 7.0 0.00 0.00 0.00 49 1017.0
20260507224029 64 57 2.6 7.0 0.00 0.00 0.00 49 1017.1
20260507223539 64 21 3.5 7.0 0.00 0.00 0.00 49 1017.1
20260507223029 64 360 1.7 5.2 0.00 0.00 0.00 49 1017.2
20260507222540 64 15 0.9 3.5 0.00 0.00 0.00 50 1017.3
20260507222031 64 19 1.7 3.5 0.00 0.00 0.00 51 1017.2
20260507221539 64 67 1.7 4.3 0.00 0.00 0.00 53 1017.2
20260507221033 64 59 2.6 5.2 0.00 0.00 0.00 55 1017.2
20260507220549 64 61 3.5 7.0 0.00 0.00 0.00 55 1017.3
20260507220042 64 66 4.3 6.1 0.00 0.00 0.00 55 1017.5
20260507215532 64 109 0.9 3.5 0.00 0.00 0.00 54 1017.6
20260507215040 65 109 2.6 3.5 0.00 0.00 0.00 52 1017.5
20260507214530 66 325 1.7 4.3 0.00 0.00 0.00 48 1017.5
20260507214035 66 325 2.6 6.1 0.00 0.00 0.00 46 1017.2
20260507213553 66 11 3.5 6.1 0.00 0.00 0.00 46 1017.1
20260507213046 66 5 3.5 5.2 0.00 0.00 0.00 47 1017.0
20260507212558 66 341 2.6 8.7 0.00 0.00 0.00 47 1016.9
20260507212032 67 25 3.5 8.7 0.00 0.00 0.00 47 1016.9
20260507211545 67 13 3.5 7.8 0.00 0.00 0.00 47 1017.0
20260507211030 66 26 2.6 7.8 0.00 0.00 0.00 47 1016.9
20260507210536 66 68 3.5 7.0 0.00 0.00 0.00 48 1017.1
20260507210047 66 27 3.5 7.8 0.00 0.00 0.00 48 1017.2
20260507205550 66 42 3.5 7.8 0.00 0.00 0.00 49 1017.4
20260507205032 66 350 1.7 4.3 0.00 0.00 0.00 49 1017.7
20260507204606 66 349 1.7 5.2 0.00 0.00 0.00 49 1017.7
20260507204030 66 21 2.6 5.2 0.00 0.00 0.00 49 1017.8
20260507203546 66 21 2.6 5.2 0.00 0.00 0.00 48 1017.8
20260507203032 67 13 2.6 5.2 0.00 0.00 0.00 48 1018.0
20260507202547 67 45 2.6 5.2 0.00 0.00 0.00 47 1018.0
20260507202038 66 11 2.6 4.3 0.00 0.00 0.00 47 1017.9
20260507201551 66 53 2.6 4.3 0.00 0.00 0.00 48 1017.9
20260507201038 66 341 1.7 2.6 0.00 0.00 0.00 47 1017.9
20260507200549 66 341 0.9 2.6 0.00 0.00 0.00 47 1017.9
20260507200036 66 341 0.9 3.5 0.00 0.00 0.00 48 1018.0
20260507195549 66 341 1.7 4.3 0.00 0.00 0.00 48 1018.0
20260507195039 66 5 1.7 4.3 0.00 0.00 0.00 48 1018.0
20260507194556 66 13 1.7 4.3 0.00 0.00 0.00 47 1017.9
20260507194034 66 12 2.6 3.5 0.00 0.00 0.00 47 1017.8
20260507193546 66 355 0.9 1.7 0.00 0.00 0.00 47 1017.9
20260507193046 66 355 0.0 2.6 0.00 0.00 0.00 47 1017.9
20260507192558 66 355 1.7 2.6 0.00 0.00 0.00 47 1017.8
20260507192029 66 355 0.0 2.6 0.00 0.00 0.00 47 1017.5
20260507191540 66 355 1.7 2.6 0.00 0.00 0.00 47 1017.5
20260507191029 66 355 0.9 2.6 0.00 0.00 0.00 48 1017.4
20260507190542 66 355 1.7 2.6 0.00 0.00 0.00 49 1017.3
20260507190106 66 355 0.9 2.6 0.00 0.00 0.00 49 1017.2
20260507185534 66 355 1.7 3.5 0.00 0.00 0.00 49 1017.2
20260507185048 67 355 0.9 3.5 0.00 0.00 0.00 49 1017.0
20260507184546 67 355 0.9 5.2 0.00 0.00 0.00 48 1017.0
20260507184038 67 355 2.6 2.6 0.00 0.00 0.00 49 1016.9
20260507183611 67 47 0.9 3.5 0.00 0.00 0.00 51 1016.7
20260507183033 66 46 2.6 4.3 0.00 0.00 0.00 52 1016.7
20260507182546 66 66 1.7 3.5 0.00 0.00 0.00 53 1016.7
20260507182043 66 38 1.7 3.5 0.00 0.00 0.00 53 1016.5
20260507181531 66 26 0.9 3.5 0.00 0.00 0.00 54 1016.7
20260507181038 67 22 1.7 3.5 0.00 0.00 0.00 54 1016.6
20260507180550 67 19 1.7 5.2 0.00 0.00 0.00 55 1016.5
20260507180027 68 52 2.6 5.2 0.00 0.00 0.00 51 1016.8
20260507175543 68 238 0.9 2.6 0.00 0.00 0.00 45 1017.0
20260507175101 68 238 1.7 2.6 0.00 0.00 0.00 46 1017.1
20260507174532 68 238 0.9 1.7 0.00 0.00 0.00 51 1017.0
20260507174027 68 238 0.0 2.6 0.00 0.00 0.00 47 1016.8
20260507173540 68 238 0.9 2.6 0.00 0.00 0.00 45 1016.8
20260507173042 68 238 0.9 2.6 0.00 0.00 0.00 45 1016.6
20260507172531 68 238 0.0 2.6 0.00 0.00 0.00 45 1016.6
20260507172100 68 238 0.9 4.3 0.00 0.00 0.00 46 1016.5
20260507171528 68 238 3.5 4.3 0.00 0.00 0.00 46 1016.6
20260507171042 69 241 2.6 4.3 0.00 0.00 0.00 47 1016.6
20260507170528 69 235 2.6 4.3 0.00 0.00 0.00 48 1016.7
20260507170045 69 250 2.6 4.3 0.00 0.00 0.00 46 1016.5
20260507165542 69 271 1.7 2.6 0.00 0.00 0.00 46 1016.4
20260507165042 69 355 1.7 2.6 0.00 0.00 0.00 46 1016.4
20260507164557 69 355 0.9 1.7 0.00 0.00 0.00 45 1016.4
20260507164059 69 355 0.0 2.6 0.00 0.00 0.00 45 1016.2
20260507163529 69 355 0.9 3.5 0.00 0.00 0.00 48 1016.2
20260507163055 69 355 1.7 3.5 0.00 0.00 0.00 50 1016.4
20260507162530 69 336 1.7 3.5 0.00 0.00 0.00 50 1016.3
20260507162044 69 296 0.9 4.3 0.00 0.00 0.00 51 1016.3
20260507161602 69 272 3.5 4.3 0.00 0.00 0.00 50 1016.2
20260507161030 69 284 2.6 7.0 0.00 0.00 0.00 50 1016.3
20260507160540 69 273 4.3 7.8 0.00 0.00 0.00 50 1016.4
20260507160034 69 241 5.2 8.7 0.00 0.00 0.00 49 1016.2
20260507155549 71 257 5.2 9.6 0.00 0.00 0.00 47 1016.3
20260507155041 72 257 4.3 7.0 0.00 0.00 0.00 39 1016.1
20260507154556 73 263 1.7 4.3 0.00 0.00 0.00 31 1016.0
20260507154027 73 68 1.7 2.6 0.00 0.00 0.00 32 1016.1
20260507153536 72 13 0.9 3.5 0.00 0.00 0.00 34 1016.1
20260507153028 72 349 1.7 3.5 0.00 0.00 0.00 35 1016.1
20260507152540 72 329 1.7 4.3 0.00 0.00 0.00 35 1016.1
20260507152107 72 349 1.7 4.3 0.00 0.00 0.00 35 1016.0
20260507151540 72 14 2.6 6.1 0.00 0.00 0.00 35 1016.0
20260507151106 72 63 2.6 6.1 0.00 0.00 0.00 37 1016.1
20260507150526 72 5 2.6 6.1 0.00 0.00 0.00 38 1016.1
20260507150039 72 46 2.6 6.1 0.00 0.00 0.00 39 1016.3
20260507145527 72 35 2.6 6.1 0.00 0.00 0.00 39 1016.5
20260507145046 72 28 3.5 5.2 0.00 0.00 0.00 40 1016.6
20260507144536 72 143 0.9 4.3 0.00 0.00 0.00 41 1016.7
20260507144042 72 123 2.6 4.3 0.00 0.00 0.00 39 1016.8
20260507143602 72 119 2.6 4.3 0.00 0.00 0.00 37 1016.8
20260507143027 72 159 1.7 5.2 0.00 0.00 0.00 37 1017.0
20260507142535 71 200 0.9 7.0 0.00 0.00 0.00 40 1017.1
20260507142029 71 194 4.3 7.0 0.00 0.00 0.00 42 1017.1
20260507141540 71 187 5.2 7.8 0.00 0.00 0.00 42 1017.1
20260507141046 70 196 4.3 7.8 0.00 0.00 0.00 43 1017.1
20260507140542 70 223 5.2 9.6 0.00 0.00 0.00 44 1017.0
20260507135533 70 211 5.2 9.6 0.00 0.00 0.00 45 1016.8
20260507135040 70 228 3.5 8.7 0.00 0.00 0.00 44 1016.7
20260507134530 70 192 6.1 8.7 0.00 0.00 0.00 43 1016.7
20260507134045 71 185 7.0 7.8 0.00 0.00 0.00 45 1016.5
20260507133532 71 224 3.5 7.8 0.00 0.00 0.00 46 1016.6
20260507133039 71 197 4.3 7.8 0.00 0.00 0.00 46 1016.4
20260507132528 71 215 4.3 8.7 0.00 0.00 0.00 47 1016.4
20260507132039 71 208 7.0 9.6 0.00 0.00 0.00 46 1016.5
20260507131529 71 263 4.3 11.3 0.00 0.00 0.00 48 1016.5
20260507131045 71 194 3.5 11.3 0.00 0.00 0.00 47 1016.5
20260507130532 71 155 7.0 11.3 0.00 0.00 0.00 44 1016.6
20260507130026 71 219 4.3 10.4 0.00 0.00 0.00 42 1016.6
20260507125539 72 183 5.2 10.4 0.00 0.00 0.00 39 1016.7
20260507125027 72 167 4.3 9.6 0.00 0.00 0.00 38 1016.9
20260507124539 71 156 6.1 9.6 0.00 0.00 0.00 40 1017.0
20260507124036 72 222 5.2 8.7 0.00 0.00 0.00 41 1017.0
20260507123552 73 158 3.5 8.7 0.00 0.00 0.00 39 1017.0
20260507123041 72 257 4.3 7.8 0.00 0.00 0.00 45 1016.9
20260507122555 72 193 5.2 8.7 0.00 0.00 0.00 44 1017.0
20260507122040 72 167 4.3 8.7 0.00 0.00 0.00 41 1017.1
20260507121533 73 167 2.6 7.8 0.00 0.00 0.00 44 1017.2
20260507121027 73 165 2.6 7.8 0.00 0.00 0.00 41 1017.3
20260507120541 72 192 4.3 7.0 0.00 0.00 0.00 43 1017.4
20260507120035 73 180 4.3 7.0 0.00 0.00 0.00 39 1017.3
20260507115538 74 210 2.6 5.2 0.00 0.00 0.00 37 1017.3
20260507115054 74 206 2.6 7.0 0.00 0.00 0.00 39 1017.3
20260507114542 74 215 3.5 7.0 0.00 0.00 0.00 38 1017.3
20260507114107 73 173 2.6 6.1 0.00 0.00 0.00 38 1017.3
20260507113537 74 147 1.7 4.3 0.00 0.00 0.00 41 1017.1
20260507113045 73 126 1.7 5.2 0.00 0.00 0.00 43 1017.1
20260507112531 72 175 2.6 7.0 0.00 0.00 0.00 42 1017.1
20260507112028 72 121 1.7 7.0 0.00 0.00 0.00 45 1017.1
20260507111541 73 136 1.7 7.0 0.00 0.00 0.00 46 1017.2
20260507111030 72 160 2.6 7.0 0.00 0.00 0.00 45 1017.3
20260507110539 71 90 2.6 6.1 0.00 0.00 0.00 46 1017.5
20260507110040 71 190 2.6 5.2 0.00 0.00 0.00 46 1017.6
20260507105629 72 138 0.9 6.1 0.00 0.00 0.00 47 1017.6
20260507105034 72 265 3.5 6.1 0.00 0.00 0.00 43 1017.5
20260507104547 72 168 2.6 4.3 0.00 0.00 0.00 43 1017.3
20260507104052 73 142 2.6 4.3 0.00 0.00 0.00 45 1017.3
20260507103545 72 111 1.7 4.3 0.00 0.00 0.00 47 1017.2
20260507103034 71 169 2.6 5.2 0.00 0.00 0.00 48 1017.3
20260507102547 70 163 1.7 4.3 0.00 0.00 0.00 50 1017.5
20260507102036 70 194 2.6 5.2 0.00 0.00 0.00 48 1017.4
20260507101550 71 225 2.6 7.0 0.00 0.00 0.00 46 1017.5
20260507101054 71 187 6.1 7.0 0.00 0.00 0.00 48 1017.5
20260507100547 71 166 3.5 6.1 0.00 0.00 0.00 51 1017.3
20260507100033 70 126 3.5 6.1 0.00 0.00 0.00 52 1017.3
20260507095539 71 218 1.7 5.2 0.00 0.00 0.00 49 1017.3
20260507095050 71 182 3.5 7.0 0.00 0.00 0.00 51 1017.3
20260507094536 72 188 1.7 6.1 0.00 0.00 0.00 53 1017.2
20260507094100 71 244 1.7 6.1 0.00 0.00 0.00 54 1017.0
20260507093535 70 173 1.7 6.1 0.00 0.00 0.00 54 1017.1
20260507093041 71 184 3.5 7.0 0.00 0.00 0.00 52 1017.1
20260507092531 70 168 3.5 7.0 0.00 0.00 0.00 52 1017.3
20260507092040 70 220 3.5 6.1 0.00 0.00 0.00 53 1017.6
20260507091548 69 177 3.5 6.1 0.00 0.00 0.00 54 1017.5
20260507091033 70 209 3.5 6.1 0.00 0.00 0.00 56 1017.6
20260507090540 70 145 2.6 6.1 0.00 0.00 0.00 55 1017.2
20260507090029 70 206 2.6 6.1 0.00 0.00 0.00 55 1017.2
20260507085526 70 234 2.6 4.3 0.00 0.00 0.00 56 1017.1
20260507085030 70 225 1.7 3.5 0.00 0.00 0.00 55 1017.1
20260507084547 70 142 1.7 5.2 0.00 0.00 0.00 54 1017.2
20260507084029 69 148 2.6 5.2 0.00 0.00 0.00 54 1017.1
20260507083539 70 196 2.6 4.3 0.00 0.00 0.00 53 1017.1
20260507083040 70 117 1.7 4.3 0.00 0.00 0.00 55 1017.1
20260507082556 68 153 0.9 4.3 0.00 0.00 0.00 58 1017.2
20260507082100 68 194 2.6 5.2 0.00 0.00 0.00 59 1017.2
20260507081533 67 197 2.6 6.1 0.00 0.00 0.00 59 1017.1
20260507081027 67 190 4.3 7.0 0.00 0.00 0.00 58 1017.2
20260507080536 68 202 3.5 6.1 0.00 0.00 0.00 57 1017.2
20260507080039 68 219 3.5 6.1 0.00 0.00 0.00 57 1017.0
20260507075557 68 211 4.3 6.1 0.00 0.00 0.00 56 1016.8
20260507075049 68 214 3.5 4.3 0.00 0.00 0.00 54 1016.7
20260507074544 69 220 2.6 4.3 0.00 0.00 0.00 54 1016.7
20260507074044 68 213 3.5 4.3 0.00 0.00 0.00 53 1016.6
20260507073529 69 207 2.6 4.3 0.00 0.00 0.00 54 1016.5
20260507073033 68 206 1.7 5.2 0.00 0.00 0.00 58 1016.6
20260507072539 68 213 3.5 5.2 0.00 0.00 0.00 60 1016.7
20260507072035 68 196 3.5 4.3 0.00 0.00 0.00 59 1016.7
20260507071530 68 200 2.6 4.3 0.00 0.00 0.00 61 1016.8
20260507071037 68 178 1.7 4.3 0.00 0.00 0.00 62 1016.8
20260507070548 68 160 1.7 3.5 0.00 0.00 0.00 63 1016.8
20260507070034 67 160 1.7 3.5 0.00 0.00 0.00 62 1016.8
20260507065539 67 160 1.7 4.3 0.00 0.00 0.00 63 1016.8